Miscellaneous Local Product
Issued by NWS North Platte, NE

Home | Current Version | Previous Version | Text Only | Print | Product List | Glossary On
Versions: 1 2 3 4 5 6 7 8 9 10 11 12 13 14 15 16 17 18 19 20 21 22 23 24 25 26 27 28 29 30 31 32 33 34 35 36 37 38 39 40 41 42 43 44 45 46 47 48 49 50
000
AXUS43 KLBF 181910
MISLBF


WESTERN AND NORTH CENTRAL NEBRASKA HOURLY WEATHER ROUNDUP
NATIONAL WEATHER SERVICE NORTH PLATTE NE
200 PM CDT SAT APR 18 2015

***STATIONS NOT REPORTING VARIABLES SUCH AS SKY/WEATHER OR
PRESSURE ARE PROVIDED BY THE NEBRASKA DEPARTMENT OF
ROADS...RAWS...AND APRS NETWORKS...AND ARE NOT UNDER
NATIONAL WEATHER SERVICE QUALITY CONTROL***

...OBSERVATIONS IN AND NEAR THE EASTERN PANHANDLE OF NEBRASKA...

CITY           SKY/WX    TMP DP  RH WIND       PRES   REMARKS
PINE RIDGE     CLOUDY    49  44  83 CALM      29.92F
CHADRON        CLOUDY    50  46  86 N6        29.92F
ALLIANCE       MOSUNNY   55  42  61 MISG      29.89F
SIDNEY         PTSUNNY   52  42  69 VRB3      29.90F
WHITECLAY        N/A     50  46  87 CALM        N/A
CRESCENT LAKE    N/A     58  45  62 SW5G12      N/A
BIG SPRINGS      N/A     57  48  72 CALM        N/A
$$

...OBSERVATIONS IN NORTH CENTRAL NEBRASKA...

CITY           SKY/WX    TMP DP  RH WIND       PRES   REMARKS
VALENTINE      CLOUDY    56  49  77 SW7       29.88F
THEDFORD       MOSUNNY   62  50  63 W5        29.87F
AINSWORTH      CLOUDY    55  53  93 E5        29.88F
O`NEILL        CLOUDY    58  55  91 E5        29.88S
ORD            CLOUDY    63  52  67 S5        29.84S
BROKEN BOW     MOSUNNY   67  51  56 CALM      29.84F
BROWNLEE         N/A     65  43  44 CALM        N/A
SPRINGVIEW       N/A     56  52  88 CALM        N/A
BREWSTER         N/A     67  53  61 CALM        N/A
ROSE             N/A     59  55  85 CALM        N/A
NEWPORT          N/A     58  55  89 S7          N/A
SARGENT          N/A     60  54  82 CALM        N/A
COMSTOCK         N/A     67  60  76 NE6         N/A
EWING            N/A     60  57  89 E5          N/A
$$

...OBSERVATIONS IN SOUTHWEST NEBRASKA AND FAR NORTHEAST COLORADO...

CITY           SKY/WX    TMP DP  RH WIND       PRES   REMARKS
WRAY           CLOUDY    58  43  57 SE10      29.87F
HOLYOKE        FAIR      63  45  51 E9        29.86F
IMPERIAL       MOSUNNY   62  46  55 SE12      29.85F
OGALLALA       MOSUNNY   63  45  52 S6        29.87F
NORTH PLATTE   SUNNY     65  48  54 S8        29.86F
MCCOOK         SUNNY     67  47  48 SE7       29.84F
LEXINGTON      MOSUNNY   66  51  58 S5        29.85F
PAXTON           N/A     59  53  79 CALM        N/A
SUTHERLAND       N/A     63  47  57 CALM        N/A
BRADY            N/A     63  51  64 CALM        N/A
GOTHENBURG       N/A     65  48  53 SE3         N/A
CALLAWAY         N/A     62  56  82 CALM        N/A
$$

...NORTH PLATTE AREA...

CITY           SKY/WX    TMP DP  RH WIND       PRES   REMARKS
AIRPORT        SUNNY     65  48  54 S8        29.86F
DOWNTOWN         N/A     65  47  51 CALM        N/A
$$

...SOME WEATHER OBSERVATIONS FROM AROUND THE REGION...

CITY           SKY/WX    TMP DP  RH WIND       PRES   REMARKS
DENVER         PTSUNNY   50  34  54 VRB7      29.90F
LARAMIE        CLOUDY    32  31  96 W8        29.93F WCI  25
CHEYENNE       CLOUDY    39  34  82 N7        29.92F WCI  34
SCOTTSBLUFF    PTSUNNY   55  32  41 VRB3      29.90F
RAPID CITY     CLOUDY    47  43  86 N13       29.94F
PIERRE         LGT RAIN  54  40  59 NE9       29.90F
WINNER         CLOUDY    58  51  78 SE8       29.88F
SIOUX FALLS    LGT RAIN  59  50  72 S7        29.93S
OMAHA          RAIN      62  59  90 SE13      29.90S FOG
GRAND ISLAND   CLOUDY    65  55  70 SE8       29.86F
KANSAS CITY    LGT RAIN  62  60  93 S9        29.92S
WICHITA        PTSUNNY   71  59  65 SE10G20   29.86F
HAYS           MOSUNNY   70  50  49 SE9       29.82F
LIBERAL        SUNNY     70  36  28 SW9G18    29.84F
GOODLAND       PTSUNNY   57  47  69 SE8       29.84F
$$



USA.gov is the U.S. government's official web portal to all federal, state and local government web resources and services.